Location: Ferintosh
(52.7647°N, 112.9692°W)
Time: 14:02:15
(UTC+00:00)

Transit 2A Rocket - Pass Details

Date: 24 May 2024
Orbit: 583 x 910 km, 66.7° (Epoch: 14 June)

Event Time Altitude Azimuth Distance (km) Brightness Sun altitude
Rises 12:03:25 0° 231° (SW) 3,033 7.4 4.5°
Reaches altitude 10° 12:05:41 10° 236° (SW) 2,168 6.7 4.8°
Maximum altitude 12:10:35 60° 316° (NW) 864 5.3 5.5°
Drops below altitude 10° 12:16:01 10° 37° (NE) 2,399 8.9 6.2°
Sets 12:18:37 0° 41° (NE) 3,385 9.8 6.5°
